{"data":{"norad_id":53894,"intl_designator":"2022-119J","name":"STARLINK-5043","alt_names":[],"object_type":"PAYLOAD","status":"ACTIVE","operator":null,"country":"US","launch_date":"2022-09-24","launch_site_code":"AFETR","launch_vehicle":null,"mission":null,"orbit_class":"UNKNOWN","rcs_meters":null,"size_class":null,"mass_kg":null,"dimensions":null,"purposes":["comms"],"wikipedia_slug":null,"has_3d_model":false,"image_url":null,"decayed_at":null,"tle_current":{"epoch":"2026-05-25T04:00:03.998880Z","epoch_age_seconds":71122,"freshness":"FRESH","line1":"1 53894U 22119J   26145.16671295  .00059532  00000+0  21123-2 0  9993","line2":"2 53894  53.2186 338.9649 0001848  68.3870  33.8282 15.28520712  5735","mean_motion":15.28520712,"eccentricity":0.0001848,"inclination_deg":53.2186,"raan_deg":338.9649,"arg_perigee_deg":68.387,"mean_anomaly_deg":33.8282,"bstar":0.0021123,"rev_number":573,"period_min":94.208733234359,"perigee_km":478.96628374085,"apogee_km":481.5011375555,"semimajor_km":6858.3707106482,"source":"CELESTRAK","updated_at":"2026-05-25T13:38:17.583249Z"}}}